| State | Missouri | Latest | Unknown (868 cfs) | |
| River | Big River | Rating | Observed | Estimated |
| Updated | 2026-05-05 6:45 (57 minutes ago) | Flood - The river is flooding. Obstacles can be treacherous or deadly. The river should be avoided at this stage for casual trips and definitely for the inexperienced. Trips should be attempted only with protective gear and equipment.Flood | (none) | (none) |
| Discharge | 868 cfs (median: 805 cfs) | High - The river is high and potentially dangerous, especially for the young and / or inexperienced. Normal stream obstacles are sometimes difficult to navigate. Extended distances can be attempted, but canoe travel may not be advisable.High | (none) | (none) |
| Height | 4.71 feet | Good - Conditions are ideal for a canoe or kayak. Boats typically will drag on fewer than one-quarter of riffles, if at all, and portages are unnecessary or rare. Normal float lengths can be attempted without a problem.Good | (none) | (none) |
| Trend | Rising (falling over 24 hours) | Low - River is low but can still be floated. Some riffles are okay but most come with significant dragging and might need a portage. Float lengths should be reduced to accommodate low flow, dragging, and portages.Low | (none) | (none) |
| USGS | USGS Site ( Duck Duck Go Maps) | Poor - River is too low to float comfortably. Most or all riffles will drag or must be portaged and some obstacles (such as slick shelf rock) cause undue problems. Avoid the river at this stage for casual paddling trips.Poor | (none) | (none) |
| Date | Start | End | Distance | Condition | Discharge | Height | Fishing | Details |
|---|
A total of 0 rows are displayed.
BLG - Bluegill
CCF - Channel Catfish
CP - Chain Pickerel
FWD - Freshwater Drum
GSF - Green Sunfish
KSB - Kentucky Spotted Bass
LMB - Largemouth Bass
LSF - Longear Sunfish
RB - Rock Bass / Goggle Eye
RSF - Redear Sunfish
RT - Rainbow Trout
SMB - Smallmouth Bass
WB - White Bass
WF - Whitefish
WL - WalleyeThe classic River Trips application is still available for use. It is updated with the new system using a data retrofit. It is no longer maintained. The original River Trips application is no longer updated (as of 1 Dec 2016) but can be checked for errors or for the condition of the data before it was converted to the new system.
| Observation | Height | Discharge | Maximum Discharge | Minimum Discharge | Mean Discharge | P05 | P10 | P20 | P25 | P50 (Median) | P75 | P80 | P90 | P95 |
|---|---|---|---|---|---|---|---|---|---|---|---|---|---|---|
| 2026-05-05 06:45 | 4.71 | 868 | 21200 (2013) | 168 (1981) | 1670 | 237 | 307 | 404 | 440 | 805 | 1690 | 2280 | 3360 | 5850 |
| 2026-05-05 05:45 | 4.70 | 865 | 21200 (2013) | 168 (1981) | 1670 | 237 | 307 | 404 | 440 | 805 | 1690 | 2280 | 3360 | 5850 |
| 2026-05-05 04:45 | 4.72 | 872 | 21200 (2013) | 168 (1981) | 1670 | 237 | 307 | 404 | 440 | 805 | 1690 | 2280 | 3360 | 5850 |
| 2026-05-05 03:45 | 4.73 | 875 | 21200 (2013) | 168 (1981) | 1670 | 237 | 307 | 404 | 440 | 805 | 1690 | 2280 | 3360 | 5850 |
| 2026-05-05 02:45 | 4.74 | 879 | 21200 (2013) | 168 (1981) | 1670 | 237 | 307 | 404 | 440 | 805 | 1690 | 2280 | 3360 | 5850 |
| 2026-05-05 01:45 | 4.75 | 882 | 21200 (2013) | 168 (1981) | 1670 | 237 | 307 | 404 | 440 | 805 | 1690 | 2280 | 3360 | 5850 |
| 2026-05-05 00:45 | 4.76 | 886 | 21200 (2013) | 168 (1981) | 1670 | 237 | 307 | 404 | 440 | 805 | 1690 | 2280 | 3360 | 5850 |
| 2026-05-04 23:45 | 4.78 | 893 | 21200 (2013) | 168 (1981) | 1670 | 237 | 307 | 404 | 440 | 805 | 1690 | 2280 | 3360 | 5850 |
| 2026-05-04 22:45 | 4.78 | 893 | 13600 (2013) | 166 (1981) | 1810 | 261 | 310 | 413 | 460 | 829 | 1960 | 2300 | 5220 | 7930 |
| 2026-05-04 21:45 | 4.79 | 896 | 13600 (2013) | 166 (1981) | 1810 | 261 | 310 | 413 | 460 | 829 | 1960 | 2300 | 5220 | 7930 |
| 2026-05-04 20:45 | 4.81 | 903 | 13600 (2013) | 166 (1981) | 1810 | 261 | 310 | 413 | 460 | 829 | 1960 | 2300 | 5220 | 7930 |
| 2026-05-04 19:45 | 4.82 | 907 | 13600 (2013) | 166 (1981) | 1810 | 261 | 310 | 413 | 460 | 829 | 1960 | 2300 | 5220 | 7930 |
| 2026-05-04 18:45 | 4.83 | 911 | 13600 (2013) | 166 (1981) | 1810 | 261 | 310 | 413 | 460 | 829 | 1960 | 2300 | 5220 | 7930 |
| 2026-05-04 17:45 | 4.85 | 918 | 13600 (2013) | 166 (1981) | 1810 | 261 | 310 | 413 | 460 | 829 | 1960 | 2300 | 5220 | 7930 |
| 2026-05-04 16:45 | 4.86 | 921 | 13600 (2013) | 166 (1981) | 1810 | 261 | 310 | 413 | 460 | 829 | 1960 | 2300 | 5220 | 7930 |
| 2026-05-04 15:45 | 4.87 | 925 | 13600 (2013) | 166 (1981) | 1810 | 261 | 310 | 413 | 460 | 829 | 1960 | 2300 | 5220 | 7930 |
| 2026-05-04 14:45 | 4.88 | 928 | 13600 (2013) | 166 (1981) | 1810 | 261 | 310 | 413 | 460 | 829 | 1960 | 2300 | 5220 | 7930 |
| 2026-05-04 13:45 | 4.89 | 932 | 13600 (2013) | 166 (1981) | 1810 | 261 | 310 | 413 | 460 | 829 | 1960 | 2300 | 5220 | 7930 |
| 2026-05-04 12:45 | 4.91 | 939 | 13600 (2013) | 166 (1981) | 1810 | 261 | 310 | 413 | 460 | 829 | 1960 | 2300 | 5220 | 7930 |
| 2026-05-04 11:45 | 4.92 | 943 | 13600 (2013) | 166 (1981) | 1810 | 261 | 310 | 413 | 460 | 829 | 1960 | 2300 | 5220 | 7930 |
| 2026-05-04 10:45 | 4.93 | 947 | 13600 (2013) | 166 (1981) | 1810 | 261 | 310 | 413 | 460 | 829 | 1960 | 2300 | 5220 | 7930 |
| 2026-05-04 09:45 | 4.94 | 950 | 13600 (2013) | 166 (1981) | 1810 | 261 | 310 | 413 | 460 | 829 | 1960 | 2300 | 5220 | 7930 |
| 2026-05-04 08:45 | 4.95 | 954 | 13600 (2013) | 166 (1981) | 1810 | 261 | 310 | 413 | 460 | 829 | 1960 | 2300 | 5220 | 7930 |
| 2026-05-04 07:45 | 4.97 | 961 | 13600 (2013) | 166 (1981) | 1810 | 261 | 310 | 413 | 460 | 829 | 1960 | 2300 | 5220 | 7930 |
| 2026-05-04 06:45 | 4.98 | 965 | 13600 (2013) | 166 (1981) | 1810 | 261 | 310 | 413 | 460 | 829 | 1960 | 2300 | 5220 | 7930 |
| 2026-05-04 05:45 | 4.99 | 969 | 13600 (2013) | 166 (1981) | 1810 | 261 | 310 | 413 | 460 | 829 | 1960 | 2300 | 5220 | 7930 |
| 2026-05-04 04:45 | 5.01 | 976 | 13600 (2013) | 166 (1981) | 1810 | 261 | 310 | 413 | 460 | 829 | 1960 | 2300 | 5220 | 7930 |
| 2026-05-04 03:45 | 5.03 | 984 | 13600 (2013) | 166 (1981) | 1810 | 261 | 310 | 413 | 460 | 829 | 1960 | 2300 | 5220 | 7930 |
| 2026-05-04 02:45 | 5.04 | 987 | 13600 (2013) | 166 (1981) | 1810 | 261 | 310 | 413 | 460 | 829 | 1960 | 2300 | 5220 | 7930 |
| 2026-05-04 01:45 | 5.05 | 991 | 13600 (2013) | 166 (1981) | 1810 | 261 | 310 | 413 | 460 | 829 | 1960 | 2300 | 5220 | 7930 |
| 2026-05-04 00:45 | 5.07 | 998 | 13600 (2013) | 166 (1981) | 1810 | 261 | 310 | 413 | 460 | 829 | 1960 | 2300 | 5220 | 7930 |
| 2026-05-03 23:45 | 5.09 | 1010 | 13600 (2013) | 166 (1981) | 1810 | 261 | 310 | 413 | 460 | 829 | 1960 | 2300 | 5220 | 7930 |
| 2026-05-03 22:45 | 5.10 | 1010 | 24000 (1983) | 175 (1981) | 2030 | 266 | 319 | 412 | 470 | 832 | 1760 | 2420 | 5360 | 8100 |
| 2026-05-03 21:45 | 5.11 | 1010 | 24000 (1983) | 175 (1981) | 2030 | 266 | 319 | 412 | 470 | 832 | 1760 | 2420 | 5360 | 8100 |
| 2026-05-03 20:45 | 5.13 | 1020 | 24000 (1983) | 175 (1981) | 2030 | 266 | 319 | 412 | 470 | 832 | 1760 | 2420 | 5360 | 8100 |
| 2026-05-03 19:45 | 5.15 | 1030 | 24000 (1983) | 175 (1981) | 2030 | 266 | 319 | 412 | 470 | 832 | 1760 | 2420 | 5360 | 8100 |
| 2026-05-03 18:45 | 5.16 | 1030 | 24000 (1983) | 175 (1981) | 2030 | 266 | 319 | 412 | 470 | 832 | 1760 | 2420 | 5360 | 8100 |
| 2026-05-03 17:45 | 5.18 | 1040 | 24000 (1983) | 175 (1981) | 2030 | 266 | 319 | 412 | 470 | 832 | 1760 | 2420 | 5360 | 8100 |
| 2026-05-03 16:45 | 5.19 | 1040 | 24000 (1983) | 175 (1981) | 2030 | 266 | 319 | 412 | 470 | 832 | 1760 | 2420 | 5360 | 8100 |
| 2026-05-03 15:45 | 5.20 | 1050 | 24000 (1983) | 175 (1981) | 2030 | 266 | 319 | 412 | 470 | 832 | 1760 | 2420 | 5360 | 8100 |
| 2026-05-03 14:45 | 5.23 | 1060 | 24000 (1983) | 175 (1981) | 2030 | 266 | 319 | 412 | 470 | 832 | 1760 | 2420 | 5360 | 8100 |
| 2026-05-03 13:45 | 5.24 | 1060 | 24000 (1983) | 175 (1981) | 2030 | 266 | 319 | 412 | 470 | 832 | 1760 | 2420 | 5360 | 8100 |
| 2026-05-03 12:45 | 5.26 | 1070 | 24000 (1983) | 175 (1981) | 2030 | 266 | 319 | 412 | 470 | 832 | 1760 | 2420 | 5360 | 8100 |
| 2026-05-03 11:45 | 5.27 | 1070 | 24000 (1983) | 175 (1981) | 2030 | 266 | 319 | 412 | 470 | 832 | 1760 | 2420 | 5360 | 8100 |
| 2026-05-03 10:45 | 5.29 | 1080 | 24000 (1983) | 175 (1981) | 2030 | 266 | 319 | 412 | 470 | 832 | 1760 | 2420 | 5360 | 8100 |
| 2026-05-03 09:45 | 5.31 | 1090 | 24000 (1983) | 175 (1981) | 2030 | 266 | 319 | 412 | 470 | 832 | 1760 | 2420 | 5360 | 8100 |
| 2026-05-03 08:45 | 5.33 | 1100 | 24000 (1983) | 175 (1981) | 2030 | 266 | 319 | 412 | 470 | 832 | 1760 | 2420 | 5360 | 8100 |
| 2026-05-03 07:45 | 5.34 | 1100 | 24000 (1983) | 175 (1981) | 2030 | 266 | 319 | 412 | 470 | 832 | 1760 | 2420 | 5360 | 8100 |
| 2026-05-03 06:45 | 5.36 | 1110 | 24000 (1983) | 175 (1981) | 2030 | 266 | 319 | 412 | 470 | 832 | 1760 | 2420 | 5360 | 8100 |
| 2026-05-03 05:45 | 5.38 | 1120 | 24000 (1983) | 175 (1981) | 2030 | 266 | 319 | 412 | 470 | 832 | 1760 | 2420 | 5360 | 8100 |
| 2026-05-03 04:45 | 5.40 | 1130 | 24000 (1983) | 175 (1981) | 2030 | 266 | 319 | 412 | 470 | 832 | 1760 | 2420 | 5360 | 8100 |
| 2026-05-03 03:45 | 5.42 | 1130 | 24000 (1983) | 175 (1981) | 2030 | 266 | 319 | 412 | 470 | 832 | 1760 | 2420 | 5360 | 8100 |
| 2026-05-03 02:45 | 5.43 | 1140 | 24000 (1983) | 175 (1981) | 2030 | 266 | 319 | 412 | 470 | 832 | 1760 | 2420 | 5360 | 8100 |
| 2026-05-03 01:45 | 5.45 | 1150 | 24000 (1983) | 175 (1981) | 2030 | 266 | 319 | 412 | 470 | 832 | 1760 | 2420 | 5360 | 8100 |
| 2026-05-03 00:45 | 5.46 | 1150 | 24000 (1983) | 175 (1981) | 2030 | 266 | 319 | 412 | 470 | 832 | 1760 | 2420 | 5360 | 8100 |
| 2026-05-02 23:45 | 5.48 | 1160 | 24000 (1983) | 175 (1981) | 2030 | 266 | 319 | 412 | 470 | 832 | 1760 | 2420 | 5360 | 8100 |
| 2026-05-02 22:45 | 5.50 | 1170 | 47500 (2017) | 164 (1954) | 2560 | 282 | 320 | 416 | 480 | 961 | 1820 | 2710 | 5550 | 9600 |
| 2026-05-02 21:45 | 5.51 | 1170 | 47500 (2017) | 164 (1954) | 2560 | 282 | 320 | 416 | 480 | 961 | 1820 | 2710 | 5550 | 9600 |
| 2026-05-02 20:45 | 5.53 | 1180 | 47500 (2017) | 164 (1954) | 2560 | 282 | 320 | 416 | 480 | 961 | 1820 | 2710 | 5550 | 9600 |
| 2026-05-02 19:45 | 5.54 | 1180 | 47500 (2017) | 164 (1954) | 2560 | 282 | 320 | 416 | 480 | 961 | 1820 | 2710 | 5550 | 9600 |
| 2026-05-02 18:45 | 5.56 | 1190 | 47500 (2017) | 164 (1954) | 2560 | 282 | 320 | 416 | 480 | 961 | 1820 | 2710 | 5550 | 9600 |
| 2026-05-02 17:45 | 5.57 | 1190 | 47500 (2017) | 164 (1954) | 2560 | 282 | 320 | 416 | 480 | 961 | 1820 | 2710 | 5550 | 9600 |
| 2026-05-02 16:45 | 5.60 | 1210 | 47500 (2017) | 164 (1954) | 2560 | 282 | 320 | 416 | 480 | 961 | 1820 | 2710 | 5550 | 9600 |
| 2026-05-02 15:45 | 5.61 | 1210 | 47500 (2017) | 164 (1954) | 2560 | 282 | 320 | 416 | 480 | 961 | 1820 | 2710 | 5550 | 9600 |
| 2026-05-02 14:45 | 5.64 | 1220 | 47500 (2017) | 164 (1954) | 2560 | 282 | 320 | 416 | 480 | 961 | 1820 | 2710 | 5550 | 9600 |
| 2026-05-02 13:45 | 5.66 | 1230 | 47500 (2017) | 164 (1954) | 2560 | 282 | 320 | 416 | 480 | 961 | 1820 | 2710 | 5550 | 9600 |
| 2026-05-02 12:45 | 5.70 | 1250 | 47500 (2017) | 164 (1954) | 2560 | 282 | 320 | 416 | 480 | 961 | 1820 | 2710 | 5550 | 9600 |
| 2026-05-02 11:45 | 5.72 | 1260 | 47500 (2017) | 164 (1954) | 2560 | 282 | 320 | 416 | 480 | 961 | 1820 | 2710 | 5550 | 9600 |
| 2026-05-02 10:45 | 5.75 | 1270 | 47500 (2017) | 164 (1954) | 2560 | 282 | 320 | 416 | 480 | 961 | 1820 | 2710 | 5550 | 9600 |
| 2026-05-02 09:45 | 5.78 | 1280 | 47500 (2017) | 164 (1954) | 2560 | 282 | 320 | 416 | 480 | 961 | 1820 | 2710 | 5550 | 9600 |
| 2026-05-02 08:45 | 5.81 | 1290 | 47500 (2017) | 164 (1954) | 2560 | 282 | 320 | 416 | 480 | 961 | 1820 | 2710 | 5550 | 9600 |
| 2026-05-02 07:45 | 5.84 | 1310 | 47500 (2017) | 164 (1954) | 2560 | 282 | 320 | 416 | 480 | 961 | 1820 | 2710 | 5550 | 9600 |
| 2026-05-02 06:45 | 5.88 | 1320 | 47500 (2017) | 164 (1954) | 2560 | 282 | 320 | 416 | 480 | 961 | 1820 | 2710 | 5550 | 9600 |
| 2026-05-02 05:45 | 5.92 | 1340 | 47500 (2017) | 164 (1954) | 2560 | 282 | 320 | 416 | 480 | 961 | 1820 | 2710 | 5550 | 9600 |
| 2026-05-02 04:45 | 5.96 | 1360 | 47500 (2017) | 164 (1954) | 2560 | 282 | 320 | 416 | 480 | 961 | 1820 | 2710 | 5550 | 9600 |
| 2026-05-02 03:45 | 5.99 | 1370 | 47500 (2017) | 164 (1954) | 2560 | 282 | 320 | 416 | 480 | 961 | 1820 | 2710 | 5550 | 9600 |
| 2026-05-02 02:45 | 6.03 | 1390 | 47500 (2017) | 164 (1954) | 2560 | 282 | 320 | 416 | 480 | 961 | 1820 | 2710 | 5550 | 9600 |
| 2026-05-02 01:45 | 6.07 | 1400 | 47500 (2017) | 164 (1954) | 2560 | 282 | 320 | 416 | 480 | 961 | 1820 | 2710 | 5550 | 9600 |
| 2026-05-02 00:45 | 6.11 | 1420 | 47500 (2017) | 164 (1954) | 2560 | 282 | 320 | 416 | 480 | 961 | 1820 | 2710 | 5550 | 9600 |
| 2026-05-01 23:45 | 6.16 | 1440 | 47500 (2017) | 164 (1954) | 2560 | 282 | 320 | 416 | 480 | 961 | 1820 | 2710 | 5550 | 9600 |
| 2026-05-01 22:45 | 6.20 | 1460 | 59600 (2017) | 160 (1954) | 2470 | 264 | 326 | 457 | 486 | 918 | 2080 | 2620 | 4670 | 7550 |
| 2026-05-01 21:45 | 6.25 | 1480 | 59600 (2017) | 160 (1954) | 2470 | 264 | 326 | 457 | 486 | 918 | 2080 | 2620 | 4670 | 7550 |
| 2026-05-01 20:45 | 6.29 | 1500 | 59600 (2017) | 160 (1954) | 2470 | 264 | 326 | 457 | 486 | 918 | 2080 | 2620 | 4670 | 7550 |
| 2026-05-01 19:45 | 6.34 | 1530 | 59600 (2017) | 160 (1954) | 2470 | 264 | 326 | 457 | 486 | 918 | 2080 | 2620 | 4670 | 7550 |
| 2026-05-01 18:45 | 6.39 | 1550 | 59600 (2017) | 160 (1954) | 2470 | 264 | 326 | 457 | 486 | 918 | 2080 | 2620 | 4670 | 7550 |
| 2026-05-01 17:45 | 6.44 | 1570 | 59600 (2017) | 160 (1954) | 2470 | 264 | 326 | 457 | 486 | 918 | 2080 | 2620 | 4670 | 7550 |
| 2026-05-01 16:45 | 6.49 | 1590 | 59600 (2017) | 160 (1954) | 2470 | 264 | 326 | 457 | 486 | 918 | 2080 | 2620 | 4670 | 7550 |
| 2026-05-01 15:45 | 6.55 | 1620 | 59600 (2017) | 160 (1954) | 2470 | 264 | 326 | 457 | 486 | 918 | 2080 | 2620 | 4670 | 7550 |
| 2026-05-01 14:45 | 6.60 | 1650 | 59600 (2017) | 160 (1954) | 2470 | 264 | 326 | 457 | 486 | 918 | 2080 | 2620 | 4670 | 7550 |
| 2026-05-01 13:45 | 6.66 | 1670 | 59600 (2017) | 160 (1954) | 2470 | 264 | 326 | 457 | 486 | 918 | 2080 | 2620 | 4670 | 7550 |
| 2026-05-01 12:45 | 6.72 | 1700 | 59600 (2017) | 160 (1954) | 2470 | 264 | 326 | 457 | 486 | 918 | 2080 | 2620 | 4670 | 7550 |
| 2026-05-01 11:45 | 6.77 | 1730 | 59600 (2017) | 160 (1954) | 2470 | 264 | 326 | 457 | 486 | 918 | 2080 | 2620 | 4670 | 7550 |
| 2026-05-01 10:45 | 6.85 | 1770 | 59600 (2017) | 160 (1954) | 2470 | 264 | 326 | 457 | 486 | 918 | 2080 | 2620 | 4670 | 7550 |
| 2026-05-01 09:45 | 6.92 | 1800 | 59600 (2017) | 160 (1954) | 2470 | 264 | 326 | 457 | 486 | 918 | 2080 | 2620 | 4670 | 7550 |
| 2026-05-01 08:45 | 6.98 | 1830 | 59600 (2017) | 160 (1954) | 2470 | 264 | 326 | 457 | 486 | 918 | 2080 | 2620 | 4670 | 7550 |
| 2026-05-01 07:45 | 7.05 | 1860 | 59600 (2017) | 160 (1954) | 2470 | 264 | 326 | 457 | 486 | 918 | 2080 | 2620 | 4670 | 7550 |
| 2026-05-01 06:45 | 7.13 | 1900 | 59600 (2017) | 160 (1954) | 2470 | 264 | 326 | 457 | 486 | 918 | 2080 | 2620 | 4670 | 7550 |
| 2026-05-01 05:45 | 7.20 | 1940 | 59600 (2017) | 160 (1954) | 2470 | 264 | 326 | 457 | 486 | 918 | 2080 | 2620 | 4670 | 7550 |
| 2026-05-01 04:45 | 7.30 | 1990 | 59600 (2017) | 160 (1954) | 2470 | 264 | 326 | 457 | 486 | 918 | 2080 | 2620 | 4670 | 7550 |
| 2026-05-01 03:45 | 7.38 | 2030 | 59600 (2017) | 160 (1954) | 2470 | 264 | 326 | 457 | 486 | 918 | 2080 | 2620 | 4670 | 7550 |
| 2026-05-01 02:45 | 7.48 | 2080 | 59600 (2017) | 160 (1954) | 2470 | 264 | 326 | 457 | 486 | 918 | 2080 | 2620 | 4670 | 7550 |
| 2026-05-01 01:45 | 7.57 | 2130 | 59600 (2017) | 160 (1954) | 2470 | 264 | 326 | 457 | 486 | 918 | 2080 | 2620 | 4670 | 7550 |
| 2026-05-01 00:45 | 7.66 | 2180 | 59600 (2017) | 160 (1954) | 2470 | 264 | 326 | 457 | 486 | 918 | 2080 | 2620 | 4670 | 7550 |
| 2026-04-30 23:45 | 7.77 | 2240 | 59600 (2017) | 160 (1954) | 2470 | 264 | 326 | 457 | 486 | 918 | 2080 | 2620 | 4670 | 7550 |
| 2026-04-30 22:45 | 7.87 | 2290 | 34700 (2017) | 166 (1954) | 2250 | 252 | 335 | 444 | 518 | 836 | 1800 | 2390 | 4920 | 8860 |
| 2026-04-30 21:45 | 7.98 | 2350 | 34700 (2017) | 166 (1954) | 2250 | 252 | 335 | 444 | 518 | 836 | 1800 | 2390 | 4920 | 8860 |
| 2026-04-30 20:45 | 8.08 | 2410 | 34700 (2017) | 166 (1954) | 2250 | 252 | 335 | 444 | 518 | 836 | 1800 | 2390 | 4920 | 8860 |
| 2026-04-30 19:45 | 8.19 | 2470 | 34700 (2017) | 166 (1954) | 2250 | 252 | 335 | 444 | 518 | 836 | 1800 | 2390 | 4920 | 8860 |
| 2026-04-30 18:45 | 8.33 | 2550 | 34700 (2017) | 166 (1954) | 2250 | 252 | 335 | 444 | 518 | 836 | 1800 | 2390 | 4920 | 8860 |
| 2026-04-30 17:45 | 8.42 | 2600 | 34700 (2017) | 166 (1954) | 2250 | 252 | 335 | 444 | 518 | 836 | 1800 | 2390 | 4920 | 8860 |
| 2026-04-30 16:45 | 8.54 | 2670 | 34700 (2017) | 166 (1954) | 2250 | 252 | 335 | 444 | 518 | 836 | 1800 | 2390 | 4920 | 8860 |
| 2026-04-30 15:45 | 8.65 | 2740 | 34700 (2017) | 166 (1954) | 2250 | 252 | 335 | 444 | 518 | 836 | 1800 | 2390 | 4920 | 8860 |
| 2026-04-30 14:45 | 8.76 | 2810 | 34700 (2017) | 166 (1954) | 2250 | 252 | 335 | 444 | 518 | 836 | 1800 | 2390 | 4920 | 8860 |
| 2026-04-30 13:45 | 8.85 | 2860 | 34700 (2017) | 166 (1954) | 2250 | 252 | 335 | 444 | 518 | 836 | 1800 | 2390 | 4920 | 8860 |
| 2026-04-30 12:45 | 8.94 | 2910 | 34700 (2017) | 166 (1954) | 2250 | 252 | 335 | 444 | 518 | 836 | 1800 | 2390 | 4920 | 8860 |
| 2026-04-30 11:45 | 9.04 | 2980 | 34700 (2017) | 166 (1954) | 2250 | 252 | 335 | 444 | 518 | 836 | 1800 | 2390 | 4920 | 8860 |
| 2026-04-30 10:45 | 9.12 | 3030 | 34700 (2017) | 166 (1954) | 2250 | 252 | 335 | 444 | 518 | 836 | 1800 | 2390 | 4920 | 8860 |
| 2026-04-30 09:45 | 9.19 | 3070 | 34700 (2017) | 166 (1954) | 2250 | 252 | 335 | 444 | 518 | 836 | 1800 | 2390 | 4920 | 8860 |
| 2026-04-30 08:45 | 9.26 | 3110 | 34700 (2017) | 166 (1954) | 2250 | 252 | 335 | 444 | 518 | 836 | 1800 | 2390 | 4920 | 8860 |
| 2026-04-30 07:45 | 9.32 | 3150 | 34700 (2017) | 166 (1954) | 2250 | 252 | 335 | 444 | 518 | 836 | 1800 | 2390 | 4920 | 8860 |
| 2026-04-30 06:45 | 9.37 | 3180 | 34700 (2017) | 166 (1954) | 2250 | 252 | 335 | 444 | 518 | 836 | 1800 | 2390 | 4920 | 8860 |
| 2026-04-30 05:45 | 9.42 | 3220 | 34700 (2017) | 166 (1954) | 2250 | 252 | 335 | 444 | 518 | 836 | 1800 | 2390 | 4920 | 8860 |
| 2026-04-30 04:45 | 9.45 | 3230 | 34700 (2017) | 166 (1954) | 2250 | 252 | 335 | 444 | 518 | 836 | 1800 | 2390 | 4920 | 8860 |
| 2026-04-30 03:45 | 9.47 | 3250 | 34700 (2017) | 166 (1954) | 2250 | 252 | 335 | 444 | 518 | 836 | 1800 | 2390 | 4920 | 8860 |
| 2026-04-30 02:45 | 9.47 | 3250 | 34700 (2017) | 166 (1954) | 2250 | 252 | 335 | 444 | 518 | 836 | 1800 | 2390 | 4920 | 8860 |
| 2026-04-30 01:45 | 9.48 | 3250 | 34700 (2017) | 166 (1954) | 2250 | 252 | 335 | 444 | 518 | 836 | 1800 | 2390 | 4920 | 8860 |
| 2026-04-30 00:45 | 9.46 | 3240 | 34700 (2017) | 166 (1954) | 2250 | 252 | 335 | 444 | 518 | 836 | 1800 | 2390 | 4920 | 8860 |
| 2026-04-29 23:45 | 9.45 | 3230 | 34700 (2017) | 166 (1954) | 2250 | 252 | 335 | 444 | 518 | 836 | 1800 | 2390 | 4920 | 8860 |
| 2026-04-29 22:45 | 9.41 | 3210 | 24600 (1996) | 178 (1954) | 1940 | 260 | 343 | 443 | 506 | 850 | 1700 | 1800 | 3140 | 8630 |
| 2026-04-29 21:45 | 9.39 | 3200 | 24600 (1996) | 178 (1954) | 1940 | 260 | 343 | 443 | 506 | 850 | 1700 | 1800 | 3140 | 8630 |
| 2026-04-29 20:45 | 9.37 | 3180 | 24600 (1996) | 178 (1954) | 1940 | 260 | 343 | 443 | 506 | 850 | 1700 | 1800 | 3140 | 8630 |
| 2026-04-29 19:45 | 9.35 | 3170 | 24600 (1996) | 178 (1954) | 1940 | 260 | 343 | 443 | 506 | 850 | 1700 | 1800 | 3140 | 8630 |
| 2026-04-29 18:45 | 9.31 | 3150 | 24600 (1996) | 178 (1954) | 1940 | 260 | 343 | 443 | 506 | 850 | 1700 | 1800 | 3140 | 8630 |
| 2026-04-29 17:45 | 9.28 | 3130 | 24600 (1996) | 178 (1954) | 1940 | 260 | 343 | 443 | 506 | 850 | 1700 | 1800 | 3140 | 8630 |
| 2026-04-29 16:45 | 9.24 | 3100 | 24600 (1996) | 178 (1954) | 1940 | 260 | 343 | 443 | 506 | 850 | 1700 | 1800 | 3140 | 8630 |
| 2026-04-29 15:45 | 9.19 | 3070 | 24600 (1996) | 178 (1954) | 1940 | 260 | 343 | 443 | 506 | 850 | 1700 | 1800 | 3140 | 8630 |
| 2026-04-29 14:45 | 9.12 | 3030 | 24600 (1996) | 178 (1954) | 1940 | 260 | 343 | 443 | 506 | 850 | 1700 | 1800 | 3140 | 8630 |
| 2026-04-29 13:45 | 9.03 | 2970 | 24600 (1996) | 178 (1954) | 1940 | 260 | 343 | 443 | 506 | 850 | 1700 | 1800 | 3140 | 8630 |
| 2026-04-29 12:45 | 8.95 | 2920 | 24600 (1996) | 178 (1954) | 1940 | 260 | 343 | 443 | 506 | 850 | 1700 | 1800 | 3140 | 8630 |
| 2026-04-29 11:45 | 8.85 | 2860 | 24600 (1996) | 178 (1954) | 1940 | 260 | 343 | 443 | 506 | 850 | 1700 | 1800 | 3140 | 8630 |
| 2026-04-29 10:45 | 8.73 | 2790 | 24600 (1996) | 178 (1954) | 1940 | 260 | 343 | 443 | 506 | 850 | 1700 | 1800 | 3140 | 8630 |
| 2026-04-29 09:45 | 8.60 | 2710 | 24600 (1996) | 178 (1954) | 1940 | 260 | 343 | 443 | 506 | 850 | 1700 | 1800 | 3140 | 8630 |
| 2026-04-29 08:45 | 8.48 | 2640 | 24600 (1996) | 178 (1954) | 1940 | 260 | 343 | 443 | 506 | 850 | 1700 | 1800 | 3140 | 8630 |
| 2026-04-29 07:45 | 8.37 | 2580 | 24600 (1996) | 178 (1954) | 1940 | 260 | 343 | 443 | 506 | 850 | 1700 | 1800 | 3140 | 8630 |
| 2026-04-29 06:45 | 8.28 | 2520 | 24600 (1996) | 178 (1954) | 1940 | 260 | 343 | 443 | 506 | 850 | 1700 | 1800 | 3140 | 8630 |
| 2026-04-29 05:45 | 8.20 | 2480 | 24600 (1996) | 178 (1954) | 1940 | 260 | 343 | 443 | 506 | 850 | 1700 | 1800 | 3140 | 8630 |
| 2026-04-29 04:45 | 8.14 | 2440 | 24600 (1996) | 178 (1954) | 1940 | 260 | 343 | 443 | 506 | 850 | 1700 | 1800 | 3140 | 8630 |
| 2026-04-29 03:45 | 8.10 | 2420 | 24600 (1996) | 178 (1954) | 1940 | 260 | 343 | 443 | 506 | 850 | 1700 | 1800 | 3140 | 8630 |
| 2026-04-29 02:45 | 8.08 | 2410 | 24600 (1996) | 178 (1954) | 1940 | 260 | 343 | 443 | 506 | 850 | 1700 | 1800 | 3140 | 8630 |
| 2026-04-29 01:45 | 8.09 | 2420 | 24600 (1996) | 178 (1954) | 1940 | 260 | 343 | 443 | 506 | 850 | 1700 | 1800 | 3140 | 8630 |
| 2026-04-29 00:45 | 8.12 | 2430 | 24600 (1996) | 178 (1954) | 1940 | 260 | 343 | 443 | 506 | 850 | 1700 | 1800 | 3140 | 8630 |
| 2026-04-28 23:45 | 8.08 | 2410 | 24600 (1996) | 178 (1954) | 1940 | 260 | 343 | 443 | 506 | 850 | 1700 | 1800 | 3140 | 8630 |
| 2026-04-28 22:45 | 7.97 | 2350 | 22200 (2011) | 168 (1956) | 1590 | 252 | 340 | 458 | 480 | 837 | 1510 | 2190 | 2840 | 5650 |
| 2026-04-28 21:45 | 7.92 | 2320 | 22200 (2011) | 168 (1956) | 1590 | 252 | 340 | 458 | 480 | 837 | 1510 | 2190 | 2840 | 5650 |
| 2026-04-28 20:45 | 7.96 | 2340 | 22200 (2011) | 168 (1956) | 1590 | 252 | 340 | 458 | 480 | 837 | 1510 | 2190 | 2840 | 5650 |
| 2026-04-28 19:45 | 8.02 | 2380 | 22200 (2011) | 168 (1956) | 1590 | 252 | 340 | 458 | 480 | 837 | 1510 | 2190 | 2840 | 5650 |
| 2026-04-28 18:45 | 8.13 | 2440 | 22200 (2011) | 168 (1956) | 1590 | 252 | 340 | 458 | 480 | 837 | 1510 | 2190 | 2840 | 5650 |
| 2026-04-28 17:45 | 8.23 | 2490 | 22200 (2011) | 168 (1956) | 1590 | 252 | 340 | 458 | 480 | 837 | 1510 | 2190 | 2840 | 5650 |
| 2026-04-28 16:45 | 8.33 | 2550 | 22200 (2011) | 168 (1956) | 1590 | 252 | 340 | 458 | 480 | 837 | 1510 | 2190 | 2840 | 5650 |
| 2026-04-28 15:45 | 8.43 | 2610 | 22200 (2011) | 168 (1956) | 1590 | 252 | 340 | 458 | 480 | 837 | 1510 | 2190 | 2840 | 5650 |
| 2026-04-28 14:45 | 8.52 | 2660 | 22200 (2011) | 168 (1956) | 1590 | 252 | 340 | 458 | 480 | 837 | 1510 | 2190 | 2840 | 5650 |
| 2026-04-28 13:45 | 8.62 | 2720 | 22200 (2011) | 168 (1956) | 1590 | 252 | 340 | 458 | 480 | 837 | 1510 | 2190 | 2840 | 5650 |
| 2026-04-28 12:45 | 8.70 | 2770 | 22200 (2011) | 168 (1956) | 1590 | 252 | 340 | 458 | 480 | 837 | 1510 | 2190 | 2840 | 5650 |
| 2026-04-28 11:45 | 8.75 | 2800 | 22200 (2011) | 168 (1956) | 1590 | 252 | 340 | 458 | 480 | 837 | 1510 | 2190 | 2840 | 5650 |
| 2026-04-28 10:45 | 8.78 | 2820 | 22200 (2011) | 168 (1956) | 1590 | 252 | 340 | 458 | 480 | 837 | 1510 | 2190 | 2840 | 5650 |
| 2026-04-28 09:45 | 8.82 | 2840 | 22200 (2011) | 168 (1956) | 1590 | 252 | 340 | 458 | 480 | 837 | 1510 | 2190 | 2840 | 5650 |
| 2026-04-28 08:45 | 8.82 | 2840 | 22200 (2011) | 168 (1956) | 1590 | 252 | 340 | 458 | 480 | 837 | 1510 | 2190 | 2840 | 5650 |
| 2026-04-28 07:45 | 8.82 | 2840 | 22200 (2011) | 168 (1956) | 1590 | 252 | 340 | 458 | 480 | 837 | 1510 | 2190 | 2840 | 5650 |
| 2026-04-28 06:45 | 8.79 | 2820 | 22200 (2011) | 168 (1956) | 1590 | 252 | 340 | 458 | 480 | 837 | 1510 | 2190 | 2840 | 5650 |
| 2026-04-28 05:45 | 8.74 | 2790 | 22200 (2011) | 168 (1956) | 1590 | 252 | 340 | 458 | 480 | 837 | 1510 | 2190 | 2840 | 5650 |
| 2026-04-28 04:45 | 8.65 | 2740 | 22200 (2011) | 168 (1956) | 1590 | 252 | 340 | 458 | 480 | 837 | 1510 | 2190 | 2840 | 5650 |
| 2026-04-28 03:45 | 8.49 | 2650 | 22200 (2011) | 168 (1956) | 1590 | 252 | 340 | 458 | 480 | 837 | 1510 | 2190 | 2840 | 5650 |
| 2026-04-28 02:45 | 8.31 | 2540 | 22200 (2011) | 168 (1956) | 1590 | 252 | 340 | 458 | 480 | 837 | 1510 | 2190 | 2840 | 5650 |
| 2026-04-28 01:45 | 8.11 | 2430 | 22200 (2011) | 168 (1956) | 1590 | 252 | 340 | 458 | 480 | 837 | 1510 | 2190 | 2840 | 5650 |
| 2026-04-28 00:45 | 7.97 | 2350 | 22200 (2011) | 168 (1956) | 1590 | 252 | 340 | 458 | 480 | 837 | 1510 | 2190 | 2840 | 5650 |
| 2026-04-27 23:45 | 7.91 | 2320 | 22200 (2011) | 168 (1956) | 1590 | 252 | 340 | 458 | 480 | 837 | 1510 | 2190 | 2840 | 5650 |
A total of 176 rows are displayed for years 1923 through 2025.